Flag Weather past 2 weeks in Germering, Bavaria, Germany

Now
34 °F

Fog.


Feels Like: 34 °F
Forecast: 39 / 58 °F
Wind: 1 mph from North

Location: Landsberg

Current Time: Nov 23, 2014 at 7:05:22 AM

Latest Report: Nov 23, 2014 at 6:20 AM


Visibility: 0 mi

Pressure: 30.18 "Hg

Humidity: 100%

Dew point: 34 °F

Location of GermeringLocation

Historic Weather in Germering — Graph

°F

Germering temperature yesterday

Maximum temperature yesterday: 52 °F (at 2:20 PM)
Minimum temperature yesterday: 36 °F (at 11:20 PM)
Average temperature yesterday: 43 °F

Past Weeks' High & Low Weather Summary

 TemperatureHumidityPressure
High54 °F (Nov 8, 11:20 AM)100% (Nov 8, 11:45 PM)30.27 "Hg (Nov 8, 11:45 PM)
Low30 °F (Nov 17, 3:56 AM)51% (Nov 8, 11:20 AM)29.50 "Hg (Nov 15, 9:20 PM)
Average42 °F93%29.87 "Hg
* Reported Nov 8 5:20 AM — Nov 23 5:20 AM, Germering, Weather by CustomWeather, © 2014

Note: Actual official high and low records may vary slightly from our data, if they occured in-between our weather recording intervals... More about our weather records

Advertising

Germering weather history for previous 24 hours

 ConditionsComfort  
Time TempWeatherWind HumidityBarometerVisibility
5:20 AM
Nov 23
34 °FFog.1 mph100%30.18 "Hg0 mi
4:20 AM36 °FFog.1 mph93%30.18 "Hg0 mi
3:20 AM36 °FFog.1 mph100%30.18 "Hg0 mi
2:20 AM36 °FFog.1 mph100%30.18 "Hg0 mi
1:20 AM34 °FFog.2 mph100%30.18 "Hg0 mi
12:20 AM36 °FFog.2 mph100%30.18 "Hg0 mi
11:20 PM
Nov 22
36 °FFog.1 mph100%30.18 "Hg0 mi
11:01 PM37 °FFog.2 mph100%30.18 "Hg0 mi
10:20 PM39 °FFog.No wind93%30.18 "Hg3 mi
9:20 PM39 °FPassing clouds.3 mph93%30.18 "HgN/A
8:20 PM41 °FPassing clouds.2 mph100%30.15 "HgN/A
7:20 PM41 °FFog.3 mph100%30.15 "HgN/A
6:20 PM43 °FFog.3 mph100%30.15 "HgN/A
5:20 PM45 °FPassing clouds.5 mph93%30.15 "HgN/A
4:20 PM48 °FPartly sunny.6 mph87%30.15 "HgN/A
3:20 PM52 °FPassing clouds.5 mph77%30.15 "HgN/A
2:20 PM52 °FPassing clouds.6 mph72%30.15 "HgN/A
1:20 PM50 °FScattered clouds.5 mph71%30.15 "HgN/A
12:20 PM48 °FScattered clouds.5 mph87%30.15 "HgN/A
11:20 AM48 °FPartly sunny.2 mph82%30.18 "HgN/A
10:20 AM43 °FPartly sunny.2 mph93%30.18 "HgN/A
9:20 AM43 °FBroken clouds.2 mph93%30.15 "HgN/A
8:20 AM41 °FPartly sunny.3 mph100%30.15 "HgN/A
7:20 AM41 °FPassing clouds.3 mph93%30.15 "HgN/A
Weather by CustomWeather, © 2014

See weather overviewHow to use our weather pages